{"data":{"norad_id":69930,"intl_designator":"2026-156BP","name":"LEMUR-2-SOPHILUNA-X1","alt_names":[],"object_type":"PAYLOAD","status":"ACTIVE","operator":null,"country":"US","launch_date":"2026-07-07","launch_site_code":"AFWTR","launch_vehicle":null,"mission":null,"orbit_class":"UNKNOWN","rcs_meters":null,"size_class":null,"mass_kg":null,"dimensions":null,"purposes":[],"wikipedia_slug":null,"has_3d_model":false,"image_url":null,"decayed_at":null,"tle_current":{"epoch":"2026-09-19T23:02:29.205600Z","epoch_age_seconds":64454,"freshness":"FRESH","line1":"1 69930U 26156BP  26262.96006025  .00002061  00000+0  20501-3 0  9992","line2":"2 69930  97.7478 162.2753 0007291 280.0821  79.9576 14.92726181 11137","mean_motion":14.92726181,"eccentricity":0.0007291,"inclination_deg":97.7478,"raan_deg":162.2753,"arg_perigee_deg":280.0821,"mean_anomaly_deg":79.9576,"bstar":0.00020501,"rev_number":1113,"period_min":96.46779284298,"perigee_km":584.35936956667,"apogee_km":594.51948951623,"semimajor_km":6967.5764295414,"source":"CELESTRAK","updated_at":"2026-09-20T09:00:25.206737Z"}}}